TimeCDT,TemperatureF,Dew PointF,Humidity,Sea Level PressureIn,VisibilityMPH,Wind Direction,Wind SpeedMPH,Gust SpeedMPH,PrecipitationIn,Events,Conditions,WindDirDegrees,DateUTC
12:15 AM,50.9,19.0,28,30.05,10.0,ESE,8.1,-,N/A,,Clear,110,2013-04-20 05:15:00
12:35 AM,50.9,19.4,29,30.04,10.0,ESE,8.1,-,N/A,,Clear,110,2013-04-20 05:35:00
12:55 AM,49.8,19.2,30,30.04,10.0,ESE,6.9,-,N/A,,Clear,120,2013-04-20 05:55:00
1:35 AM,45.7,18.5,34,30.02,10.0,SE,5.8,-,N/A,,Clear,130,2013-04-20 06:35:00
1:55 AM,46.8,18.5,32,30.02,10.0,SE,3.5,-,N/A,,Clear,140,2013-04-20 06:55:00
2:15 AM,46.4,18.5,33,30.02,10.0,Calm,Calm,-,N/A,,Clear,0,2013-04-20 07:15:00
2:35 AM,45.5,18.1,34,30.01,10.0,Calm,Calm,-,N/A,,Clear,0,2013-04-20 07:35:00
2:55 AM,40.3,15.6,37,30.00,10.0,West,3.5,-,N/A,,Clear,270,2013-04-20 07:55:00
3:15 AM,41.0,14.5,34,30.00,10.0,West,3.5,-,N/A,,Clear,270,2013-04-20 08:15:00
3:35 AM,41.5,14.5,33,30.00,10.0,WNW,3.5,-,N/A,,Clear,300,2013-04-20 08:35:00
3:55 AM,41.9,16.2,35,30.00,10.0,Calm,Calm,-,N/A,,Clear,0,2013-04-20 08:55:00
4:15 AM,41.0,17.2,38,30.00,10.0,Calm,Calm,-,N/A,,Clear,0,2013-04-20 09:15:00
4:35 AM,41.2,16.3,37,29.99,10.0,Calm,Calm,-,N/A,,Clear,0,2013-04-20 09:35:00
4:55 AM,38.8,14.9,38,29.99,10.0,Calm,Calm,-,N/A,,Clear,0,2013-04-20 09:55:00
5:15 AM,37.2,14.2,39,29.98,10.0,Calm,Calm,-,N/A,,Clear,0,2013-04-20 10:15:00
5:35 AM,34.0,12.9,42,29.99,10.0,Calm,Calm,-,N/A,,Clear,0,2013-04-20 10:35:00
5:55 AM,37.2,17.8,45,29.98,10.0,NE,3.5,-,N/A,,Clear,40,2013-04-20 10:55:00
6:15 AM,38.7,19.8,47,29.99,10.0,NNE,3.5,-,N/A,,Clear,20,2013-04-20 11:15:00
6:35 AM,37.4,19.2,48,29.99,10.0,ENE,6.9,-,N/A,,Clear,70,2013-04-20 11:35:00
6:55 AM,37.2,19.0,48,29.99,10.0,East,5.8,-,N/A,,Clear,80,2013-04-20 11:55:00
7:15 AM,36.1,18.5,49,29.99,10.0,Calm,Calm,-,N/A,,Clear,0,2013-04-20 12:15:00
7:35 AM,36.5,18.5,48,29.99,10.0,Calm,Calm,-,N/A,,Clear,0,2013-04-20 12:35:00
7:55 AM,34.3,15.8,47,29.99,10.0,Calm,Calm,-,N/A,,Clear,0,2013-04-20 12:55:00
8:15 AM,37.9,18.0,45,30.00,10.0,Calm,Calm,-,N/A,,Clear,0,2013-04-20 13:15:00
8:35 AM,40.1,18.9,43,30.00,10.0,Calm,Calm,-,N/A,,Clear,0,2013-04-20 13:35:00
8:55 AM,41.7,18.7,40,30.00,10.0,Calm,Calm,-,N/A,,Clear,0,2013-04-20 13:55:00
9:15 AM,45.7,20.8,37,30.00,10.0,Calm,Calm,-,N/A,,Clear,0,2013-04-20 14:15:00
9:35 AM,49.1,21.6,34,30.00,10.0,East,3.5,-,N/A,,Clear,100,2013-04-20 14:35:00
9:55 AM,51.1,20.8,31,29.99,10.0,Calm,Calm,-,N/A,,Clear,0,2013-04-20 14:55:00
10:15 AM,54.5,22.3,29,30.00,10.0,Calm,Calm,-,N/A,,Clear,0,2013-04-20 15:15:00
10:35 AM,57.6,23.5,27,29.99,10.0,NNE,3.5,-,N/A,,Clear,30,2013-04-20 15:35:00
10:55 AM,60.4,24.6,25,29.99,10.0,North,3.5,-,N/A,,Clear,10,2013-04-20 15:55:00
11:15 AM,64.2,24.1,22,29.98,10.0,SE,4.6,-,N/A,,Clear,130,2013-04-20 16:15:00
11:35 AM,67.3,23.9,19,29.98,10.0,ENE,4.6,-,N/A,,Clear,60,2013-04-20 16:35:00
11:55 AM,70.2,23.2,17,29.96,10.0,East,5.8,-,N/A,,Clear,90,2013-04-20 16:55:00
12:15 PM,72.3,23.4,16,29.95,10.0,East,3.5,-,N/A,,Clear,100,2013-04-20 17:15:00
12:35 PM,74.5,24.6,16,29.94,10.0,SE,4.6,-,N/A,,Clear,130,2013-04-20 17:35:00
12:55 PM,76.1,24.8,15,29.92,10.0,SSE,8.1,-,N/A,,Clear,150,2013-04-20 17:55:00
1:15 PM,79.0,25.0,14,29.91,10.0,SSE,5.8,-,N/A,,Clear,160,2013-04-20 18:15:00
2:15 PM,81.1,21.9,11,29.87,10.0,Calm,Calm,-,N/A,,Clear,0,2013-04-20 19:15:00
2:35 PM,82.9,23.2,11,29.86,10.0,SW,12.7,-,N/A,,Clear,220,2013-04-20 19:35:00
2:55 PM,84.2,23.2,11,29.85,10.0,West,9.2,21.9,N/A,,Clear,270,2013-04-20 19:55:00
3:35 PM,86.5,23.0,10,29.82,10.0,WNW,9.2,21.9,N/A,,Clear,290,2013-04-20 20:35:00
3:55 PM,86.5,18.7,8,29.81,10.0,WSW,11.5,26.5,N/A,,Clear,240,2013-04-20 20:55:00
4:35 PM,86.2,19.2,8,29.79,10.0,WSW,19.6,24.2,N/A,,Clear,250,2013-04-20 21:35:00
4:55 PM,86.2,20.1,9,29.78,10.0,WSW,13.8,23.0,N/A,,Clear,240,2013-04-20 21:55:00
5:15 PM,86.5,19.9,9,29.77,7.0,SW,13.8,29.9,N/A,,Clear,230,2013-04-20 22:15:00
5:35 PM,86.9,18.9,8,29.77,10.0,West,20.7,28.8,N/A,,Clear,260,2013-04-20 22:35:00
6:15 PM,86.4,20.7,9,29.75,10.0,WSW,11.5,25.3,N/A,,Clear,240,2013-04-20 23:15:00
6:35 PM,86.5,19.4,8,29.75,10.0,WSW,17.3,25.3,N/A,,Clear,250,2013-04-20 23:35:00
6:55 PM,86.4,18.1,8,29.75,10.0,West,15.0,18.4,N/A,,Clear,260,2013-04-20 23:55:00
7:15 PM,84.7,17.2,8,29.75,10.0,West,18.4,25.3,N/A,,Clear,270,2013-04-21 00:15:00
7:35 PM,83.5,15.3,8,29.77,10.0,WNW,19.6,29.9,N/A,,Clear,290,2013-04-21 00:35:00
7:55 PM,81.7,14.0,8,29.77,10.0,WNW,19.6,32.2,N/A,,Clear,290,2013-04-21 00:55:00
8:15 PM,79.5,13.1,8,29.78,10.0,West,18.4,25.3,N/A,,Clear,280,2013-04-21 01:15:00
8:35 PM,77.4,12.6,9,29.80,10.0,WNW,15.0,20.7,N/A,,Clear,290,2013-04-21 01:35:00
8:55 PM,75.4,12.0,9,29.82,10.0,West,12.7,-,N/A,,Clear,280,2013-04-21 01:55:00
9:35 PM,68.7,10.9,11,29.84,10.0,West,9.2,-,N/A,,Clear,280,2013-04-21 02:35:00
10:15 PM,63.1,8.2,12,29.86,10.0,WSW,8.1,-,N/A,,Clear,250,2013-04-21 03:15:00
10:35 PM,61.9,7.7,12,29.86,10.0,WSW,6.9,-,N/A,,Clear,240,2013-04-21 03:35:00
10:55 PM,60.3,7.5,12,29.86,10.0,WSW,9.2,-,N/A,,Clear,240,2013-04-21 03:55:00
11:15 PM,59.0,6.8,13,29.86,10.0,WSW,8.1,-,N/A,,Clear,240,2013-04-21 04:15:00
11:35 PM,57.7,6.8,13,29.86,10.0,WSW,9.2,-,N/A,,Clear,240,2013-04-21 04:35:00
11:55 PM,58.3,6.8,13,29.86,10.0,WSW,8.1,-,N/A,,Clear,250,2013-04-21 04:55:00